This is the latest recevied weather packets stored in our database for station/object ON7XX-13. If no packets are shown the sender has not sent any weather packets the latest 10 day(s).
| Time | Temp. | Humidity | Pressure | Rain* | Wind** | Luminosity | Snow |
|---|---|---|---|---|---|---|---|
| 1777046295 | 23.33° C | 36% | 1023.7 hPa | - | - | - | - |
| 1777045681 | 23.89° C | 37% | 1023.8 hPa | - | - | - | - |
| 1777045066 | 23.89° C | 37% | 1023.9 hPa | - | - | - | - |
| 1777044452 | 23.89° C | 39% | 1023.9 hPa | - | - | - | - |
| 1777043838 | 23.89° C | 39% | 1023.9 hPa | - | - | - | - |
| 1777043224 | 24.44° C | 38% | 1024.1 hPa | - | - | - | - |
| 1777042610 | 24.44° C | 38% | 1024.1 hPa | - | - | - | - |
| 1777041995 | 24.44° C | 38% | 1024.2 hPa | - | - | - | - |
| 1777041381 | 24.44° C | 38% | 1024.2 hPa | - | - | - | - |
| 1777040767 | 25° C | 40% | 1024.3 hPa | - | - | - | - |
| 1777040152 | 25° C | 40% | 1024.4 hPa | - | - | - | - |
| 1777039539 | 25° C | 39% | 1024.5 hPa | - | - | - | - |
| 1777038924 | 25° C | 40% | 1024.6 hPa | - | - | - | - |
| 1777038310 | 25° C | 41% | 1024.6 hPa | - | - | - | - |
| 1777037696 | 25° C | 40% | 1024.6 hPa | - | - | - | - |
| 1777037082 | 25° C | 38% | 1024.6 hPa | - | - | - | - |
| 1777036467 | 24.44° C | 39% | 1024.8 hPa | - | - | - | - |
| 1777035853 | 24.44° C | 38% | 1024.8 hPa | - | - | - | - |
| 1777035239 | 24.44° C | 37% | 1024.8 hPa | - | - | - | - |
| 1777034625 | 24.44° C | 38% | 1024.9 hPa | - | - | - | - |
| 1777034010 | 23.89° C | 37% | 1025 hPa | - | - | - | - |
| 1777033396 | 23.89° C | 37% | 1025.1 hPa | - | - | - | - |
| 1777032782 | 23.33° C | 38% | 1025.3 hPa | - | - | - | - |
| 1777032167 | 23.33° C | 40% | 1025.4 hPa | - | - | - | - |
| 1777031553 | 22.78° C | 41% | 1025.4 hPa | - | - | - | - |
* Rain since midnight (hover to see other rain measurements)
** Current wind speed in m/s (hover to see current wind gust speed)